Location: Erdweis
(48.5167°N, 15.3500°E)
Time: 14:39:49
(UTC+00:00)

NOSS 2-2 (C) - Pass Details

Date: 19 January 2021
Orbit: 463 x 1745 km, 63.3° (Epoch: 03 March)

Event Time Altitude Azimuth Distance (km) Brightness Sun altitude
Rises 16:48:31 0° 304° (NW) 2,656 7.4 -11.6°
Reaches altitude 10° 16:51:44 10° 336° (NNW) 1,923 6.2 -12.1°
Maximum altitude 16:53:40 13° 3° (N) 1,859 5.8 -12.5°
Drops below altitude 10° 16:55:49 10° 30° (NNE) 2,173 5.9 -12.8°
Enters shadow 16:56:01 10° 32° (NNE) 2,220 6.0 -12.8°
